Location: Sears
(37.7625°N, 100.1060°W)
Time: 21:17:12
(UTC+00:00)

Cosmos 1697 Rocket - Pass Details

Date: 29 October 2020
Orbit: 831 x 845 km, 71.0° (Epoch: 01 December)

Event Time Altitude Azimuth Distance (km) Brightness Sun altitude
Exits shadow 12:31:56 - 303° (WNW) 2,802 4.8 -6.8°
Reaches altitude 10° 12:33:33 10° 290° (WNW) 2,464 4.5 -6.5°
Maximum altitude 12:36:06 13° 263° (W) 2,236 4.3 -6.0°
Drops below altitude 10° 12:38:38 10° 236° (SW) 2,459 4.7 -5.5°
Sets 12:42:27 0° 210° (SSW) 3,388 5.7 -4.8°
